Wilmington, NC

7:50 AM EDT on March 23, 2017 (GMT -0400)
Wilmington International

Weather History for KILM - June, 2014

Change the Weather History Date:

Tuesday, June 10, 2014

  Actual Average Record
Temperature  
Mean Temperature 87 °F 77 °F  
Max Temperature 96 °F 86 °F 99 °F (1993)
Min Temperature 77 °F 68 °F 51 °F (1913)
Degree Days  
Heating Degree Days 0 0  
Month to date heating degree days 0 0  
Since 1 June heating degree days 0 0  
Since 1 July heating degree days 2432 2409  
Cooling Degree Days 22 12  
Month to date cooling degree days 112 108  
Year to date cooling degree days 519 389  
Since 1 June cooling degree days 112 108  
Growing Degree Days 36 (Base 50)    
Moisture  
Dew Point 73 °F    
Average Humidity 70    
Maximum Humidity 94    
Minimum Humidity 46    
Precipitation  
Precipitation T in 0.17 in 3.25 in (1966)
Month to date precipitation 0.49 1.68  
Year to date precipitation 19.73 20.58  
Sea Level Pressure  
Sea Level Pressure 29.94 in    
Wind  
Wind Speed 7 mph (SSW)    
Max Wind Speed 16 mph    
Max Gust Speed 22 mph    
Visibility 10 miles    
Events Rain , Thunderstorm    
T = Trace of Precipitation, MM = Missing Value Source: NWS Daily Summary

Daily Weather History Graph

Daily Weather History Graph

Search for Another Location

Airport or City:

Trip Planner

Search our weather history database for the weather conditions in past years. The results will help you decide how hot, cold, wet, or windy it might be!

Date:

Astronomy

Jun. 10, 2014 Rise Set
Actual Time 5:59 AM EDT 8:23 PM EDT
Civil Twilight 5:29 AM EDT 8:52 PM EDT
Nautical Twilight 4:54 AM EDT 9:28 PM EDT
Astronomical Twilight 4:14 AM EDT 10:07 PM EDT
Moon 5:52 PM EDT (6/10) 3:56 AM EDT (6/10)
Length of Visible Light 15h 22m
Length of Day
14h 24m
Waxing Gibbous, 92% of the Moon is Illuminated
Jun 10
Waxing Gibbous
Jun 13
Full
Jun 19
Last Quarter
Jun 27
New
Jul 5
First Quarter

Hourly Weather History & Observations

Time (EDT) Temp. Heat Index Dew Point Humidity Pressure Visibility Wind Dir Wind Speed Gust Speed Precip Events Conditions
12:53 AM 77.0 °F - 73.9 °F 90% 29.92 in 10.0 mi South 8.1 mph - N/A   Clear
1:53 AM 77.0 °F - 73.9 °F 90% 29.93 in 10.0 mi South 5.8 mph - N/A   Clear
2:53 AM 77.0 °F - 73.9 °F 90% 29.93 in 10.0 mi South 4.6 mph - N/A   Clear
3:53 AM 77.0 °F - 73.9 °F 90% 29.91 in 10.0 mi SSW 6.9 mph - N/A   Clear
4:53 AM 77.0 °F - 73.9 °F 90% 29.92 in 9.0 mi SSW 8.1 mph - N/A   Clear
5:53 AM 77.0 °F - 75.0 °F 94% 29.93 in 9.0 mi SW 5.8 mph - N/A   Scattered Clouds
6:53 AM 77.0 °F - 73.9 °F 90% 29.95 in 7.0 mi West 5.8 mph - N/A   Partly Cloudy
7:25 AM 78.1 °F - 75.0 °F 90% 29.95 in 7.0 mi West 4.6 mph - N/A   Mostly Cloudy
7:48 AM 78.8 °F - 75.2 °F 89% 29.95 in 8.0 mi WSW 6.9 mph - N/A   Scattered Clouds
7:53 AM 79.0 °F - 75.0 °F 88% 29.95 in 8.0 mi WSW 6.9 mph - N/A   Partly Cloudy
8:53 AM 81.0 °F 86.7 °F 75.0 °F 82% 29.95 in 10.0 mi WSW 8.1 mph - N/A   Clear
9:53 AM 84.9 °F 92.1 °F 73.9 °F 69% 29.95 in 10.0 mi WSW 5.8 mph - N/A   Clear
10:53 AM 89.6 °F 98.2 °F 73.4 °F 59% 29.96 in 10.0 mi Variable 4.6 mph - N/A   Clear
11:53 AM 93.0 °F 101.9 °F 73.0 °F 52% 29.96 in 10.0 mi Calm Calm - N/A   Partly Cloudy
12:53 PM 93.9 °F 100.3 °F 70.0 °F 46% 29.95 in 10.0 mi Variable 6.9 mph - N/A   Partly Cloudy
1:53 PM 93.0 °F 97.9 °F 69.1 °F 45% 29.94 in 10.0 mi Calm Calm - N/A   Scattered Clouds
2:09 PM 91.0 °F 102.9 °F 75.9 °F 61% 29.93 in 10.0 mi SSE 10.4 mph - N/A Thunderstorm Mostly Cloudy
2:35 PM 88.0 °F 94.7 °F 72.0 °F 59% 29.93 in 10.0 mi South 11.5 mph - N/A   Mostly Cloudy
2:53 PM 89.6 °F 98.2 °F 73.4 °F 59% 29.93 in 10.0 mi South 6.9 mph - N/A   Scattered Clouds
3:23 PM 86.0 °F 96.0 °F 75.9 °F 72% 29.94 in 10.0 mi South 6.9 mph - 0.00 in Rain Light Rain
3:53 PM 90.0 °F 102.5 °F 77.0 °F 65% 29.93 in 10.0 mi SSW 8.1 mph - 0.00 in   Clear
5:53 PM 88.0 °F 94.7 °F 72.0 °F 59% 29.92 in 10.0 mi SSW 12.7 mph - N/A   Clear
6:53 PM 88.0 °F 93.8 °F 71.1 °F 57% 29.92 in 10.0 mi SSW 11.5 mph - N/A   Clear
7:53 PM 84.9 °F 90.1 °F 71.1 °F 63% 29.93 in 10.0 mi SSW 13.8 mph - N/A   Clear
8:53 PM 82.9 °F 88.0 °F 72.0 °F 69% 29.94 in 10.0 mi SSW 9.2 mph - N/A   Clear
9:53 PM 81.0 °F 84.4 °F 70.0 °F 69% 29.96 in 10.0 mi SSW 10.4 mph - N/A   Clear
10:53 PM 80.6 °F 83.9 °F 69.8 °F 70% 29.98 in 10.0 mi SSW 6.9 mph - N/A   Clear
11:53 PM 79.0 °F - 70.0 °F 74% 29.97 in 10.0 mi SSW 6.9 mph - N/A   Clear